Location: Unspecified
(0.0000°N, 0.0000°E)
Time: 08:34:41
(UTC+00:00)

deb NOAA 5 - Pass Details

Date: 19 February 2026
Orbit: 747 x 1048 km, 102.9° (Epoch: 14 March)

Event Time Altitude Azimuth Distance (km) Brightness Sun altitude
Rises 04:57:58 0° 127° (SE) 3,428 ? -18.6°
Reaches altitude 10° 05:01:23 10° 104° (ESE) 2,553 ? -17.8°
Maximum altitude 05:04:28 15° 70° (ENE) 2,267 ? -17.0°
Drops below altitude 10° 05:07:38 10° 38° (NE) 2,662 ? -16.2°
Sets 05:11:18 0° 16° (NNE) 3,667 ? -15.3°
